Volver al catálogo

CZ-4B DEB

ActivoPO
NORAD 37572·DEBRIS·🇨🇳 China

Lanzado May 27, 2008 desde Taiyuan Satellite Launch Center

Loading…

Próximos Pases (próximas 24 horas)

TLE

ActualizadoSource: Space-Track

Época: Sep 14, 2026, 05:24 UTC

1 37572U 08026D   26257.22518612  .00000332  00000-0  30010-3 0  9994
2 37572  98.7151 249.3333 0238798 335.3197  85.3392 13.78006933907671

Sigue CZ-4B DEB en tiempo real con AllMySat

Download on the App Store